Погода в Тиинске

Россия / Ульяновская область     54°23′33″N   49°38′40″E
темп.,
°C
ветер,
м/с
пор.,
м/с
влажн.,
%
обл.,
%
осадки,
мм/ч
давл.,
гПа
погр.,
м
6 марта, сб
сб601:00−12зюз34940 0.0 101059
04:00−12юз36957 0.0 1011103
07:00−12з499795 0.1 1012182
10:00−10зсз589490 0.1 1013321
13:00−9зсз578771 0.0 1014614
16:00−9сз358352 0.0 1014532
19:00−14зюз239187 0.0 101423
22:00−15зюз238864 0.0 101420
7 марта, вс
вс701:00−16зюз23890 0.0 101320
04:00−17зюз22923 0.0 101320
07:00−17юз229670 0.0 101221
10:00−13юз359581 0.1 1012195
13:00−9юз369398 0.1 1011355
16:00−8ююз479199 0.1 1008608
19:00−8ю51293100 0.1 1007436
22:00−8ююз71394100 0.3 1005638
8 марта, пн
пн801:00−7ююз81593100 1.3 1000871
04:00−5ююз81494100 2.5 998928
07:00−9з4108383 1.1 998198
10:00−8юз5108457 1.1 1000338
13:00−4ююз597854 0.0 1001649
16:00−4ю5107872 0.0 998780
19:00−4ююв5119597 0.6 995550
22:00−9зюз7148196 1.0 995627
9 марта, вт
вт901:00−7зюз7149368 0.4 997687
04:00−8з8138984 1.1 1000672
07:00−12з6139199 0.0 1004517
10:00−11з61191100 0.1 1006546
13:00−10з5889100 0.1 1008619
16:00−10з5788100 0.1 1010682
19:00−14з359599 0.1 101194
22:00−15зсз359796 0.1 101290
10 марта, ср
ср1001:00−18з359869 0.0 101385
04:00−18зсз359882 0.1 101399
07:00−18зсз369793 0.1 1014148
10:00−16зсз479495 0.1 1015356
13:00−14сз4690100 0.1 1016580
16:00−15сз4690100 0.1 1017617
19:00−19зсз3597100 0.1 1018107
22:00−21зсз359884 0.1 1020108